Time,TemperatureF,DewpointF,PressureIn,WindDirection,WindDirectionDegrees,WindSpeedMPH,WindSpeedGustMPH,Humidity,HourlyPrecipIn,Conditions,Clouds,dailyrainin,SoftwareType,DateUTC
2013-01-31 00:00:00,50.2,47.1,29.04,WNW,283,7.0,7.0,89,0.12,,,0.64,Wunderground v.1.15,2013-01-31 05:00:00,
2013-01-31 00:05:00,49.2,46.4,29.05,South,180,6.0,7.0,90,0.10,,,0.01,Wunderground v.1.15,2013-01-31 05:05:00,
2013-01-31 00:15:00,47.1,44.0,29.05,NNE,32,7.0,11.0,89,0.06,,,0.01,Wunderground v.1.15,2013-01-31 05:15:00,
2013-01-31 00:25:00,45.2,42.2,29.07,WSW,255,6.0,9.0,89,0.00,,,0.01,Wunderground v.1.15,2013-01-31 05:25:00,
2013-01-31 00:35:00,43.6,40.6,29.10,SSW,197,6.0,6.0,89,0.00,,,0.02,Wunderground v.1.15,2013-01-31 05:35:00,
2013-01-31 00:45:00,41.2,38.5,29.11,WSW,256,8.0,10.0,90,0.00,,,0.02,Wunderground v.1.15,2013-01-31 05:45:00,
2013-01-31 00:50:00,40.6,38.2,29.11,SSE,166,7.0,7.0,91,0.00,,,0.02,Wunderground v.1.15,2013-01-31 05:50:00,
2013-01-31 01:00:00,39.9,37.5,29.10,WSW,246,5.0,5.0,91,0.00,,,0.02,Wunderground v.1.15,2013-01-31 06:00:00,
2013-01-31 01:05:00,39.6,37.2,29.09,SSE,166,6.0,9.0,91,0.00,,,0.02,Wunderground v.1.15,2013-01-31 06:05:00,
2013-01-31 01:15:00,39.1,36.7,29.09,WSW,239,6.0,7.0,91,0.00,,,0.03,Wunderground v.1.15,2013-01-31 06:15:00,
2013-01-31 01:20:00,38.9,36.5,29.08,SW,218,5.0,12.0,91,0.00,,,0.03,Wunderground v.1.15,2013-01-31 06:20:00,
2013-01-31 01:30:00,38.4,36.0,29.12,SW,217,6.0,12.0,91,0.00,,,0.03,Wunderground v.1.15,2013-01-31 06:30:00,
2013-01-31 01:35:00,38.1,35.7,29.11,North,354,6.0,12.0,91,0.00,,,0.03,Wunderground v.1.15,2013-01-31 06:35:00,
2013-01-31 01:45:00,37.5,35.1,29.13,SSW,205,8.0,8.0,91,0.00,,,0.03,Wunderground v.1.15,2013-01-31 06:45:00,
2013-01-31 01:50:00,37.3,34.9,29.13,WSW,248,7.0,7.0,91,0.00,,,0.03,Wunderground v.1.15,2013-01-31 06:50:00,
2013-01-31 02:00:00,36.8,34.4,29.13,WSW,237,6.0,6.0,91,0.00,,,0.03,Wunderground v.1.15,2013-01-31 07:00:00,
2013-01-31 02:10:00,36.4,34.3,29.13,WSW,239,5.0,12.0,92,0.00,,,0.03,Wunderground v.1.15,2013-01-31 07:10:00,
2013-01-31 02:15:00,36.2,33.8,29.12,SSW,198,6.0,12.0,91,0.00,,,0.03,Wunderground v.1.15,2013-01-31 07:15:00,
2013-01-31 02:25:00,35.8,33.7,29.14,SSE,165,6.0,8.0,92,0.00,,,0.04,Wunderground v.1.15,2013-01-31 07:25:00,
2013-01-31 02:30:00,35.6,33.5,29.13,SSE,158,7.0,12.0,92,0.00,,,0.04,Wunderground v.1.15,2013-01-31 07:30:00,
2013-01-31 02:40:00,35.3,33.2,29.13,SSE,165,6.0,6.0,92,0.00,,,0.04,Wunderground v.1.15,2013-01-31 07:40:00,
2013-01-31 02:45:00,35.2,33.1,29.13,SW,235,5.0,6.0,92,0.00,,,0.04,Wunderground v.1.15,2013-01-31 07:45:00,
2013-01-31 02:55:00,35.0,32.9,29.14,SW,222,8.0,15.0,92,0.00,,,0.04,Wunderground v.1.15,2013-01-31 07:55:00,
2013-01-31 03:00:00,34.9,32.8,29.13,ESE,111,7.0,8.0,92,0.00,,,0.04,Wunderground v.1.15,2013-01-31 08:00:00,
2013-01-31 03:05:00,34.9,32.8,29.13,East,95,7.0,8.0,92,0.00,,,0.04,Wunderground v.1.15,2013-01-31 08:05:00,
2013-01-31 03:15:00,35.1,33.0,29.13,SW,224,7.0,9.0,92,0.00,,,0.04,Wunderground v.1.15,2013-01-31 08:15:00,
2013-01-31 03:20:00,35.0,32.9,29.12,South,187,7.0,7.0,92,0.00,,,0.04,Wunderground v.1.15,2013-01-31 08:20:00,
2013-01-31 03:25:00,34.9,32.8,29.12,NW,314,7.0,7.0,92,0.00,,,0.04,Wunderground v.1.15,2013-01-31 08:25:00,
2013-01-31 03:35:00,34.5,32.4,29.12,SW,217,5.0,6.0,92,0.00,,,0.05,Wunderground v.1.15,2013-01-31 08:35:00,
2013-01-31 03:40:00,34.4,32.6,29.12,WSW,240,5.0,9.0,93,0.06,,,0.06,Wunderground v.1.15,2013-01-31 08:40:00,
2013-01-31 03:50:00,34.7,32.9,29.12,West,267,7.0,10.0,93,0.05,,,0.06,Wunderground v.1.15,2013-01-31 08:50:00,
2013-01-31 03:55:00,34.9,32.8,29.12,ESE,108,7.0,10.0,92,0.00,,,0.06,Wunderground v.1.15,2013-01-31 08:55:00,
2013-01-31 04:05:00,34.9,32.5,29.13,West,260,7.0,13.0,91,0.00,,,0.06,Wunderground v.1.15,2013-01-31 09:05:00,
2013-01-31 04:10:00,34.8,32.2,29.13,WSW,253,6.0,6.0,90,0.00,,,0.06,Wunderground v.1.15,2013-01-31 09:10:00,
2013-01-31 04:20:00,34.7,31.5,29.14,WSW,248,7.0,14.0,88,0.00,,,0.06,Wunderground v.1.15,2013-01-31 09:20:00,
2013-01-31 04:25:00,34.5,31.6,29.15,West,266,7.0,14.0,89,0.00,,,0.06,Wunderground v.1.15,2013-01-31 09:25:00,
2013-01-31 04:30:00,34.2,31.6,29.16,WNW,295,7.0,7.0,90,0.00,,,0.06,Wunderground v.1.15,2013-01-31 09:30:00,
2013-01-31 04:40:00,33.4,30.8,29.17,SW,228,8.0,8.0,90,0.00,,,0.06,Wunderground v.1.15,2013-01-31 09:40:00,
2013-01-31 04:45:00,33.4,30.8,29.17,West,269,7.0,8.0,90,0.00,,,0.06,Wunderground v.1.15,2013-01-31 09:45:00,
2013-01-31 04:50:00,33.5,30.3,29.17,SSW,204,5.0,11.0,88,0.00,,,0.06,Wunderground v.1.15,2013-01-31 09:50:00,
2013-01-31 05:00:00,33.7,29.7,29.18,SW,232,5.0,5.0,85,0.00,,,0.06,Wunderground v.1.15,2013-01-31 10:00:00,
2013-01-31 05:10:00,33.6,29.9,29.19,WNW,290,6.0,6.0,86,0.00,,,0.06,Wunderground v.1.15,2013-01-31 10:10:00,
2013-01-31 05:20:00,33.0,29.3,29.20,NNW,336,6.0,6.0,86,0.00,,,0.06,Wunderground v.1.15,2013-01-31 10:20:00,
2013-01-31 05:30:00,32.4,29.0,29.20,WNW,283,7.0,15.0,87,0.00,,,0.06,Wunderground v.1.15,2013-01-31 10:30:00,
2013-01-31 05:35:00,32.2,28.5,29.21,SSW,211,8.0,15.0,86,0.00,,,0.06,Wunderground v.1.15,2013-01-31 10:35:00,
2013-01-31 05:40:00,32.0,27.7,29.21,WSW,252,9.0,9.0,84,0.00,,,0.06,Wunderground v.1.15,2013-01-31 10:40:00,
2013-01-31 05:45:00,31.8,27.5,29.22,South,177,8.0,11.0,84,0.00,,,0.06,Wunderground v.1.15,2013-01-31 10:45:00,
2013-01-31 05:55:00,31.8,26.3,29.23,WNW,292,7.0,20.0,80,0.00,,,0.06,Wunderground v.1.15,2013-01-31 10:55:00,
2013-01-31 06:00:00,31.6,25.5,29.23,SW,220,9.0,9.0,78,0.00,,,0.06,Wunderground v.1.15,2013-01-31 11:00:00,
2013-01-31 06:10:00,31.4,25.9,29.24,North,352,8.0,8.0,80,0.00,,,0.06,Wunderground v.1.15,2013-01-31 11:10:00,
2013-01-31 06:15:00,31.2,26.0,29.25,SW,229,5.0,8.0,81,0.00,,,0.06,Wunderground v.1.15,2013-01-31 11:15:00,
2013-01-31 06:20:00,31.0,24.9,29.25,SSW,201,6.0,6.0,78,0.00,,,0.06,Wunderground v.1.15,2013-01-31 11:20:00,
2013-01-31 06:25:00,30.8,25.1,29.25,South,191,7.0,9.0,79,0.00,,,0.06,Wunderground v.1.15,2013-01-31 11:25:00,
2013-01-31 06:35:00,30.6,23.0,29.26,West,276,8.0,8.0,73,0.00,,,0.06,Wunderground v.1.15,2013-01-31 11:35:00,
2013-01-31 06:45:00,30.4,22.4,29.27,WSW,240,7.0,8.0,72,0.00,,,0.06,Wunderground v.1.15,2013-01-31 11:45:00,
2013-01-31 06:55:00,30.0,21.7,29.28,South,169,7.0,7.0,71,0.00,,,0.06,Wunderground v.1.15,2013-01-31 11:55:00,
2013-01-31 07:00:00,29.8,21.5,29.29,West,277,8.0,13.0,71,0.00,,,0.06,Wunderground v.1.15,2013-01-31 12:00:00,
2013-01-31 07:10:00,29.5,21.6,29.30,SSE,157,5.0,5.0,72,0.00,,,0.06,Wunderground v.1.15,2013-01-31 12:10:00,
2013-01-31 07:20:00,29.0,21.1,29.31,West,269,8.0,8.0,72,0.00,,,0.06,Wunderground v.1.15,2013-01-31 12:20:00,
2013-01-31 07:25:00,28.8,21.2,29.32,West,276,7.0,9.0,73,0.00,,,0.06,Wunderground v.1.15,2013-01-31 12:25:00,
2013-01-31 07:35:00,28.8,20.6,29.33,NW,312,7.0,13.0,71,0.00,,,0.06,Wunderground v.1.15,2013-01-31 12:35:00,
2013-01-31 07:40:00,28.8,19.6,29.33,WSW,252,7.0,7.0,68,0.00,,,0.06,Wunderground v.1.15,2013-01-31 12:40:00,
2013-01-31 07:50:00,28.4,20.2,29.34,South,188,7.0,7.0,71,0.00,,,0.06,Wunderground v.1.15,2013-01-31 12:50:00,
2013-01-31 07:55:00,28.2,20.3,29.34,South,183,6.0,7.0,72,0.00,,,0.06,Wunderground v.1.15,2013-01-31 12:55:00,
2013-01-31 08:00:00,28.1,20.2,29.35,SW,218,6.0,10.0,72,0.00,,,0.06,Wunderground v.1.15,2013-01-31 13:00:00,
2013-01-31 08:10:00,28.0,21.1,29.36,SW,232,6.0,6.0,75,0.00,,,0.06,Wunderground v.1.15,2013-01-31 13:10:00,
2013-01-31 08:20:00,27.8,20.3,29.36,South,176,7.0,7.0,73,0.00,,,0.06,Wunderground v.1.15,2013-01-31 13:20:00,
2013-01-31 08:25:00,27.8,19.3,29.37,SSW,195,7.0,7.0,70,0.00,,,0.06,Wunderground v.1.15,2013-01-31 13:25:00,
2013-01-31 08:30:00,27.9,19.7,29.37,West,274,6.0,6.0,71,0.00,,,0.06,Wunderground v.1.15,2013-01-31 13:30:00,
2013-01-31 08:40:00,28.1,18.5,29.38,West,268,6.0,6.0,67,0.00,,,0.06,Wunderground v.1.15,2013-01-31 13:40:00,
2013-01-31 08:45:00,28.1,19.6,29.38,WSW,252,7.0,20.0,70,0.00,,,0.06,Wunderground v.1.15,2013-01-31 13:45:00,
2013-01-31 08:55:00,27.5,20.9,29.39,NW,309,7.0,13.0,76,0.00,,,0.06,Wunderground v.1.15,2013-01-31 13:55:00,
2013-01-31 09:00:00,27.2,21.2,29.40,NNE,18,5.0,5.0,78,0.00,,,0.06,Wunderground v.1.15,2013-01-31 14:00:00,
2013-01-31 09:10:00,27.3,20.4,29.41,West,277,4.0,8.0,75,0.00,,,0.06,Wunderground v.1.15,2013-01-31 14:10:00,
2013-01-31 09:20:00,27.4,18.9,29.41,SW,220,7.0,15.0,70,0.00,,,0.06,Wunderground v.1.15,2013-01-31 14:20:00,
2013-01-31 09:30:00,27.5,19.0,29.41,WSW,255,8.0,10.0,70,0.00,,,0.06,Wunderground v.1.15,2013-01-31 14:30:00,
2013-01-31 09:40:00,27.6,17.7,29.42,WNW,295,8.0,10.0,66,0.00,,,0.06,Wunderground v.1.15,2013-01-31 14:40:00,
2013-01-31 09:50:00,27.8,17.6,29.42,SSW,208,6.0,6.0,65,0.00,,,0.06,Wunderground v.1.15,2013-01-31 14:50:00,
2013-01-31 10:00:00,28.0,17.4,29.43,WNW,292,6.0,6.0,64,0.00,,,0.06,Wunderground v.1.15,2013-01-31 15:00:00,
2013-01-31 10:10:00,28.0,17.0,29.43,WSW,252,7.0,12.0,63,0.00,,,0.06,Wunderground v.1.15,2013-01-31 15:10:00,
2013-01-31 10:20:00,27.9,17.3,29.44,West,259,8.0,8.0,64,0.00,,,0.06,Wunderground v.1.15,2013-01-31 15:20:00,
2013-01-31 10:25:00,27.9,16.6,29.44,SW,235,8.0,10.0,62,0.00,,,0.06,Wunderground v.1.15,2013-01-31 15:25:00,
2013-01-31 10:30:00,27.9,16.9,29.44,SW,228,8.0,13.0,63,0.00,,,0.06,Wunderground v.1.15,2013-01-31 15:30:00,
2013-01-31 10:35:00,27.8,17.6,29.45,NW,310,7.0,13.0,65,0.00,,,0.06,Wunderground v.1.15,2013-01-31 15:35:00,
2013-01-31 10:45:00,27.3,19.8,29.46,WSW,257,7.0,8.0,73,0.00,,,0.06,Wunderground v.1.15,2013-01-31 15:45:00,
2013-01-31 10:55:00,27.0,18.5,29.46,SW,226,9.0,9.0,70,0.00,,,0.06,Wunderground v.1.15,2013-01-31 15:55:00,
2013-01-31 11:00:00,27.3,17.8,29.46,SW,236,8.0,10.0,67,0.00,,,0.06,Wunderground v.1.15,2013-01-31 16:00:00,
2013-01-31 11:10:00,28.0,17.4,29.46,West,267,8.0,13.0,64,0.00,,,0.06,Wunderground v.1.15,2013-01-31 16:10:00,
2013-01-31 11:20:00,27.5,17.3,29.46,SW,232,9.0,16.0,65,0.00,,,0.06,Wunderground v.1.15,2013-01-31 16:20:00,
2013-01-31 11:25:00,27.2,17.0,29.46,SE,143,9.0,16.0,65,0.00,,,0.06,Wunderground v.1.15,2013-01-31 16:25:00,
2013-01-31 11:35:00,27.1,16.2,29.46,SSW,213,8.0,8.0,63,0.00,,,0.06,Wunderground v.1.15,2013-01-31 16:35:00,
2013-01-31 11:40:00,27.0,16.1,29.46,West,270,10.0,10.0,63,0.00,,,0.06,Wunderground v.1.15,2013-01-31 16:40:00,
2013-01-31 11:50:00,27.6,14.7,29.47,SW,227,9.0,9.0,58,0.00,,,0.06,Wunderground v.1.15,2013-01-31 16:50:00,
2013-01-31 12:00:00,28.7,15.0,29.46,WSW,243,7.0,7.0,56,0.00,,,0.06,Wunderground v.1.15,2013-01-31 17:00:00,
2013-01-31 12:05:00,28.8,15.1,29.46,WNW,302,8.0,8.0,56,0.00,,,0.06,Wunderground v.1.15,2013-01-31 17:05:00,
2013-01-31 12:10:00,28.9,15.6,29.47,WSW,243,9.0,9.0,57,0.00,,,0.06,Wunderground v.1.15,2013-01-31 17:10:00,
2013-01-31 12:20:00,29.0,15.7,29.46,SSW,205,6.0,6.0,57,0.00,,,0.06,Wunderground v.1.15,2013-01-31 17:20:00,
2013-01-31 12:30:00,28.1,15.2,29.48,WSW,246,9.0,20.0,58,0.00,,,0.06,Wunderground v.1.15,2013-01-31 17:30:00,
2013-01-31 12:35:00,27.9,14.6,29.48,WNW,301,9.0,20.0,57,0.00,,,0.06,Wunderground v.1.15,2013-01-31 17:35:00,
2013-01-31 12:40:00,27.7,15.6,29.48,West,281,10.0,10.0,60,0.00,,,0.06,Wunderground v.1.15,2013-01-31 17:40:00,
2013-01-31 12:50:00,27.1,15.8,29.49,West,273,9.0,11.0,62,0.00,,,0.06,Wunderground v.1.15,2013-01-31 17:50:00,
2013-01-31 13:00:00,27.4,15.3,29.50,SW,218,8.0,8.0,60,0.00,,,0.06,Wunderground v.1.15,2013-01-31 18:00:00,
2013-01-31 13:10:00,28.0,15.5,29.49,WSW,245,8.0,8.0,59,0.00,,,0.06,Wunderground v.1.15,2013-01-31 18:10:00,
2013-01-31 13:15:00,28.1,14.8,29.50,NE,40,9.0,9.0,57,0.00,,,0.06,Wunderground v.1.15,2013-01-31 18:15:00,
2013-01-31 13:25:00,27.2,16.3,29.50,SSW,203,8.0,9.0,63,0.00,,,0.06,Wunderground v.1.15,2013-01-31 18:25:00,
2013-01-31 13:35:00,27.1,15.8,29.51,SSW,210,7.0,10.0,62,0.00,,,0.06,Wunderground v.1.15,2013-01-31 18:35:00,
2013-01-31 13:40:00,27.7,15.6,29.50,North,357,7.0,9.0,60,0.00,,,0.06,Wunderground v.1.15,2013-01-31 18:40:00,
2013-01-31 13:50:00,28.1,13.1,29.51,WSW,252,8.0,8.0,53,0.00,,,0.06,Wunderground v.1.15,2013-01-31 18:50:00,
2013-01-31 14:00:00,27.4,14.1,29.52,ENE,75,9.0,12.0,57,0.00,,,0.06,Wunderground v.1.15,2013-01-31 19:00:00,
2013-01-31 14:10:00,28.0,13.5,29.52,NNW,336,7.0,7.0,54,0.00,,,0.06,Wunderground v.1.15,2013-01-31 19:10:00,
2013-01-31 14:15:00,28.7,13.3,29.52,West,276,6.0,7.0,52,0.00,,,0.06,Wunderground v.1.15,2013-01-31 19:15:00,
2013-01-31 14:20:00,28.9,13.5,29.52,West,270,6.0,6.0,52,0.00,,,0.06,Wunderground v.1.15,2013-01-31 19:20:00,
2013-01-31 14:25:00,29.2,13.7,29.52,WNW,283,6.0,6.0,52,0.00,,,0.06,Wunderground v.1.15,2013-01-31 19:25:00,
2013-01-31 14:35:00,29.0,12.7,29.53,SW,215,8.0,10.0,50,0.00,,,0.06,Wunderground v.1.15,2013-01-31 19:35:00,
2013-01-31 14:45:00,28.8,11.6,29.53,SW,235,10.0,10.0,48,0.00,,,0.06,Wunderground v.1.15,2013-01-31 19:45:00,
2013-01-31 14:50:00,28.6,11.8,29.54,WSW,255,9.0,9.0,49,0.00,,,0.06,Wunderground v.1.15,2013-01-31 19:50:00,
2013-01-31 15:00:00,27.8,12.0,29.54,SW,236,7.0,11.0,51,0.00,,,0.06,Wunderground v.1.15,2013-01-31 20:00:00,
2013-01-31 15:05:00,27.9,12.5,29.55,SW,224,7.0,11.0,52,0.00,,,0.06,Wunderground v.1.15,2013-01-31 20:05:00,
2013-01-31 15:10:00,28.0,12.6,29.55,SW,224,6.0,10.0,52,0.00,,,0.06,Wunderground v.1.15,2013-01-31 20:10:00,
2013-01-31 15:15:00,27.9,13.4,29.55,SW,228,6.0,10.0,54,0.00,,,0.06,Wunderground v.1.15,2013-01-31 20:15:00,
2013-01-31 15:25:00,27.7,13.2,29.55,SW,226,7.0,10.0,54,0.00,,,0.06,Wunderground v.1.15,2013-01-31 20:25:00,
2013-01-31 15:35:00,27.1,13.5,29.57,West,274,7.0,12.0,56,0.00,,,0.06,Wunderground v.1.15,2013-01-31 20:35:00,
2013-01-31 15:40:00,26.7,13.9,29.57,SW,229,6.0,6.0,58,0.00,,,0.06,Wunderground v.1.15,2013-01-31 20:40:00,
2013-01-31 15:45:00,26.5,13.7,29.57,SW,218,6.0,6.0,58,0.00,,,0.06,Wunderground v.1.15,2013-01-31 20:45:00,
2013-01-31 15:55:00,26.3,13.5,29.58,SSW,198,6.0,9.0,58,0.00,,,0.06,Wunderground v.1.15,2013-01-31 20:55:00,
2013-01-31 16:05:00,26.2,14.2,29.58,West,263,7.0,7.0,60,0.00,,,0.06,Wunderground v.1.15,2013-01-31 21:05:00,
2013-01-31 16:10:00,26.2,13.4,29.59,SW,223,6.0,6.0,58,0.00,,,0.06,Wunderground v.1.15,2013-01-31 21:10:00,
2013-01-31 16:15:00,26.3,13.5,29.59,North,354,6.0,6.0,58,0.00,,,0.06,Wunderground v.1.15,2013-01-31 21:15:00,
2013-01-31 16:25:00,26.4,14.0,29.59,WNW,302,5.0,9.0,59,0.00,,,0.06,Wunderground v.1.15,2013-01-31 21:25:00,
2013-01-31 16:35:00,26.1,14.1,29.60,South,176,5.0,5.0,60,0.00,,,0.06,Wunderground v.1.15,2013-01-31 21:35:00,
2013-01-31 16:40:00,25.9,14.7,29.60,NNW,328,5.0,5.0,62,0.00,,,0.06,Wunderground v.1.15,2013-01-31 21:40:00,
2013-01-31 16:50:00,25.6,14.0,29.60,SE,145,6.0,6.0,61,0.00,,,0.06,Wunderground v.1.15,2013-01-31 21:50:00,
2013-01-31 17:00:00,25.3,14.5,29.61,NW,314,6.0,6.0,63,0.00,,,0.06,Wunderground v.1.15,2013-01-31 22:00:00,
2013-01-31 17:10:00,25.1,15.0,29.61,SW,218,4.0,4.0,65,0.00,,,0.06,Wunderground v.1.15,2013-01-31 22:10:00,
2013-01-31 17:20:00,25.1,14.6,29.62,South,186,4.0,8.0,64,0.00,,,0.06,Wunderground v.1.15,2013-01-31 22:20:00,
2013-01-31 17:30:00,25.0,15.2,29.63,SW,231,5.0,6.0,66,0.00,,,0.06,Wunderground v.1.15,2013-01-31 22:30:00,
2013-01-31 17:35:00,25.0,15.2,29.63,SSE,166,5.0,6.0,66,0.00,,,0.06,Wunderground v.1.15,2013-01-31 22:35:00,
2013-01-31 17:45:00,24.9,15.8,29.63,West,263,5.0,5.0,68,0.00,,,0.06,Wunderground v.1.15,2013-01-31 22:45:00,
2013-01-31 17:55:00,24.6,15.9,29.64,WNW,284,5.0,5.0,69,0.00,,,0.06,Wunderground v.1.15,2013-01-31 22:55:00,
2013-01-31 18:00:00,24.5,15.8,29.65,WSW,240,6.0,6.0,69,0.00,,,0.06,Wunderground v.1.15,2013-01-31 23:00:00,
2013-01-31 18:10:00,24.1,15.4,29.65,WSW,250,6.0,9.0,69,0.00,,,0.06,Wunderground v.1.15,2013-01-31 23:10:00,
2013-01-31 18:15:00,24.0,15.6,29.65,SW,226,6.0,9.0,70,0.00,,,0.06,Wunderground v.1.15,2013-01-31 23:15:00,
2013-01-31 18:20:00,24.0,15.3,29.66,SW,226,6.0,6.0,69,0.00,,,0.06,Wunderground v.1.15,2013-01-31 23:20:00,
2013-01-31 18:30:00,24.0,16.6,29.66,SW,224,6.0,6.0,73,0.00,,,0.06,Wunderground v.1.15,2013-01-31 23:30:00,
2013-01-31 18:35:00,23.8,16.4,29.67,WSW,246,5.0,6.0,73,0.00,,,0.06,Wunderground v.1.15,2013-01-31 23:35:00,
2013-01-31 18:40:00,23.6,16.2,29.67,WSW,253,5.0,5.0,73,0.00,,,0.06,Wunderground v.1.15,2013-01-31 23:40:00,
2013-01-31 18:50:00,23.3,16.2,29.67,SW,236,5.0,5.0,74,0.00,,,0.06,Wunderground v.1.15,2013-01-31 23:50:00,
2013-01-31 18:55:00,23.2,16.1,29.67,SSW,201,5.0,5.0,74,0.00,,,0.06,Wunderground v.1.15,2013-01-31 23:55:00,
2013-01-31 19:05:00,23.3,15.9,29.68,SSE,150,5.0,6.0,73,0.00,,,0.06,Wunderground v.1.15,2013-02-01 00:05:00,
2013-01-31 19:10:00,23.4,16.0,29.68,SW,235,6.0,6.0,73,0.00,,,0.06,Wunderground v.1.15,2013-02-01 00:10:00,
2013-01-31 19:20:00,23.2,15.5,29.68,NW,326,5.0,7.0,72,0.00,,,0.06,Wunderground v.1.15,2013-02-01 00:20:00,
2013-01-31 19:25:00,22.8,16.1,29.68,WSW,252,5.0,7.0,75,0.00,,,0.06,Wunderground v.1.15,2013-02-01 00:25:00,
2013-01-31 19:30:00,22.5,16.7,29.68,West,262,5.0,5.0,78,0.00,,,0.06,Wunderground v.1.15,2013-02-01 00:30:00,
2013-01-31 19:35:00,22.4,17.2,29.69,SW,233,4.0,5.0,80,0.00,,,0.06,Wunderground v.1.15,2013-02-01 00:35:00,
2013-01-31 19:45:00,22.3,16.8,29.69,WSW,241,3.0,5.0,79,0.00,,,0.06,Wunderground v.1.15,2013-02-01 00:45:00,
2013-01-31 19:55:00,22.5,15.5,29.69,SSW,212,5.0,6.0,74,0.00,,,0.06,Wunderground v.1.15,2013-02-01 00:55:00,
2013-01-31 20:00:00,22.7,15.3,29.69,West,278,6.0,6.0,73,0.00,,,0.06,Wunderground v.1.15,2013-02-01 01:00:00,
2013-01-31 20:10:00,22.8,15.1,29.69,WSW,254,4.0,4.0,72,0.00,,,0.06,Wunderground v.1.15,2013-02-01 01:10:00,
2013-01-31 20:15:00,22.9,15.2,29.69,SW,228,5.0,8.0,72,0.00,,,0.06,Wunderground v.1.15,2013-02-01 01:15:00,
2013-01-31 20:20:00,22.9,14.9,29.70,SSW,209,5.0,5.0,71,0.00,,,0.06,Wunderground v.1.15,2013-02-01 01:20:00,
2013-01-31 20:30:00,22.8,14.5,29.70,SE,128,5.0,5.0,70,0.00,,,0.06,Wunderground v.1.15,2013-02-01 01:30:00,
2013-01-31 20:35:00,22.8,14.1,29.70,WSW,255,4.0,6.0,69,0.00,,,0.06,Wunderground v.1.15,2013-02-01 01:35:00,
2013-01-31 20:40:00,22.7,14.1,29.70,SE,129,5.0,5.0,69,0.00,,,0.06,Wunderground v.1.15,2013-02-01 01:40:00,
2013-01-31 20:50:00,22.6,14.0,29.70,SW,229,4.0,4.0,69,0.00,,,0.06,Wunderground v.1.15,2013-02-01 01:50:00,
2013-01-31 20:55:00,22.5,14.2,29.70,SW,224,4.0,4.0,70,0.00,,,0.06,Wunderground v.1.15,2013-02-01 01:55:00,
2013-01-31 21:05:00,22.3,14.6,29.70,NE,34,3.0,4.0,72,0.00,,,0.06,Wunderground v.1.15,2013-02-01 02:05:00,
2013-01-31 21:10:00,22.2,14.5,29.70,WNW,292,3.0,6.0,72,0.00,,,0.06,Wunderground v.1.15,2013-02-01 02:10:00,
2013-01-31 21:20:00,22.1,14.1,29.71,SW,224,4.0,7.0,71,0.00,,,0.06,Wunderground v.1.15,2013-02-01 02:20:00,
2013-01-31 21:30:00,22.2,14.2,29.71,West,263,4.0,4.0,71,0.00,,,0.06,Wunderground v.1.15,2013-02-01 02:30:00,
2013-01-31 21:40:00,22.3,13.3,29.71,West,273,4.0,5.0,68,0.00,,,0.06,Wunderground v.1.15,2013-02-01 02:40:00,
2013-01-31 21:45:00,22.4,13.4,29.71,WSW,253,4.0,8.0,68,0.00,,,0.06,Wunderground v.1.15,2013-02-01 02:45:00,
2013-01-31 21:55:00,22.5,12.8,29.72,SW,232,4.0,6.0,66,0.00,,,0.06,Wunderground v.1.15,2013-02-01 02:55:00,
2013-01-31 22:05:00,22.5,12.8,29.72,SSE,155,4.0,5.0,66,0.00,,,0.06,Wunderground v.1.15,2013-02-01 03:05:00,
2013-01-31 22:15:00,22.3,13.0,29.72,West,270,4.0,4.0,67,0.00,,,0.06,Wunderground v.1.15,2013-02-01 03:15:00,
2013-01-31 22:20:00,22.2,13.2,29.72,SW,223,5.0,5.0,68,0.00,,,0.06,Wunderground v.1.15,2013-02-01 03:20:00,
2013-01-31 22:30:00,22.1,13.1,29.72,South,190,5.0,5.0,68,0.00,,,0.06,Wunderground v.1.15,2013-02-01 03:30:00,
2013-01-31 22:35:00,22.1,12.8,29.72,SSW,200,4.0,5.0,67,0.00,,,0.06,Wunderground v.1.15,2013-02-01 03:35:00,
2013-01-31 22:45:00,22.1,12.8,29.73,SW,215,4.0,4.0,67,0.00,,,0.06,Wunderground v.1.15,2013-02-01 03:45:00,
2013-01-31 22:50:00,22.1,12.8,29.73,West,265,4.0,8.0,67,0.00,,,0.06,Wunderground v.1.15,2013-02-01 03:50:00,
2013-01-31 23:00:00,22.1,12.5,29.73,WSW,248,4.0,5.0,66,0.00,,,0.06,Wunderground v.1.15,2013-02-01 04:00:00,
2013-01-31 23:10:00,21.9,12.3,29.73,SSW,208,5.0,5.0,66,0.00,,,0.06,Wunderground v.1.15,2013-02-01 04:10:00,
2013-01-31 23:20:00,21.7,12.4,29.74,WSW,238,4.0,8.0,67,0.00,,,0.06,Wunderground v.1.15,2013-02-01 04:20:00,
2013-01-31 23:25:00,21.7,12.8,29.74,WSW,241,3.0,8.0,68,0.00,,,0.06,Wunderground v.1.15,2013-02-01 04:25:00,
2013-01-31 23:30:00,21.6,12.7,29.74,SSW,208,3.0,3.0,68,0.00,,,0.06,Wunderground v.1.15,2013-02-01 04:30:00,
2013-01-31 23:40:00,21.5,12.9,29.74,WNW,287,4.0,6.0,69,0.00,,,0.06,Wunderground v.1.15,2013-02-01 04:40:00,
2013-01-31 23:50:00,21.3,12.7,29.74,West,267,4.0,6.0,69,0.00,,,0.06,Wunderground v.1.15,2013-02-01 04:50:00,